Back to catalog

STARLINK-5233

AliveCommunicationsVLEO
NORAD 54160·PAYLOAD·🇺🇸 United States

Launched Oct 28, 2022 from Vandenberg Space Force Base

Loading…

Next Passes (next 24 hours)

TLE

FreshSource: CelesTrak SupGP

Epoch: Sep 14, 2026, 13:48 UTC

1 54160C 22141D   26257.57548611  .00002698  00000+0  86756-4 0  2572
2 54160  53.1593 190.4231 0001406  89.2261  81.5053 15.31696170    15

Track STARLINK-5233 in real time with AllMySat

Download on the App Store